Погода в Аяне

Погода в Аяне : погода сейчас, прогноз погоды и архив. Всё, что Вы хотите узнать о погоде в Аяне!

Хотите узнать прогноз погоды в Аяне? Тогда Вам сюда: Погода в Аяне

Поиск расширенной информации на нашем сайте:

Другие новости

Новости СМИ2

Главная страница сайта

Новости сайта

02.10.2013

Напоминаем, что на нашем новом сайте вы можете получить высокодетализированные прогнозы погоды по пунктам России, СНГ и мира (включающие важные для авиации метеовеличины, такие как направление и скорость ветра, видимость, явления погоды, количество и форма облачности, нижняя и верхняя граница облачности), а также ознакомиться с разнообразными материалами по авиационной метеорологии и подборкой полезных ссылок на эту тему.

Сайт Метеоцентр.Азия посвящён разработке технологий оптимизации авиаметеорологического обслуживания, включая проектирование и перспективное создание нескольких автоматизированных авиаметеорологических систем:
- система выпуска высокодетальных прогностических карт явлений погоды для нижнего воздушного пространства по России и ближнему зарубежью;
- система верификации прогнозов TAF (выпускаемых синоптиками официальных АМСГ РФ и ближнего зарубежья) и AUTOTAF (выпускаемых сайтом Метеоцентр.Азия) - выявление ошибок, онлайн-сопоставление с фактической погодой METAR, автоматическое внесение коррективов в прогнозы при резком отклонении фактической погоды от прогноза, подсчёт оправдываемости прогнозов по элементам и в целом;
- система обработки, анализа и отображения авиаметеорологической информации для применения провайдерами метеорологической информации.


Погода в Аяне - сегодня

Время (UTC), дата Ветер
(°,м/с) 
Видим.   Явления Облачность Т
(°С)
Тd
(°С)
f(%) Тe
(°С)
Pmin
(гПа)
dP
(гПа)
Po
(мм)
O2
(г/м3)
Тmin Tmax R s Состояние
почвы
21 26.03.17 010 (С) 20000 м    ясно 
-7.9 -12 72 -9  1016.1  -0.4  761  317  -7.9      83  равномерный
сухой снег
100% 
00 27.03.17 120 (ЮВ) 20000 м    3/0 верхняя 
[Ci fib]
+1.2 -10.5 41 +2  1015.8  -0.3  761  306  -8.3         
03 27.03.17 190 (Ю) 20000 м    10/0 верхняя 
[Cs]
-0.2 -5.6 67 -2  1015  -0.7  761  307           
06 27.03.17 180 (Ю) 20000 м    10/0 верхняя 
[Cs]
-0.4 -5.8 67 -2  1014  -0.7  760  307           
09 27.03.17 220 (ЮЗ) 20000 м    10/0 верхняя 
[Cs]
-2.5 -7.5 68 -4  1013.8  -0.2  760  310    +1.4       
12 27.03.17 тихо ()   20000 м    4/0 верхняя 
[Cs]
-6.9 -8.7 87 -7  1013.7  0.1  760  315           
15 27.03.17 030 (СВ) 20000 м    ясно 
-8.6 -10.9 83 -8  1012.8  -0.9  759  317           
18 27.03.17 030 (СВ) 20000 м    ясно 
-10.2 -12 87 -12  1012.2  -0.6  759  319           
21 27.03.17 020 (С) 20000 м    8/0 верхняя 
[Cs]
-10.6 -12 89 -10  1012.3  0.1  759  319  -10.8      83  равномерный
сухой снег
100% 
00 28.03.17 020 (С) 20000 м    10/0 верхняя 
[Cs]
-2.7 -7.4 70 -4  1012.7  0.4  759  310           
03 28.03.17 020 (С) 20000 м    10/0 верхняя 
[Cs]
-1.3 -5.5 73 -4  1012.7  759  308           
06 28.03.17 180 (Ю) 20000 м    10/0 верхняя 
[Cs]
-0.5 -5.2 70 -1  1013.1  0.4  759  307           
09 28.03.17 тихо ()   20000 м    10/0 средняя, верхняя 
[As trans|Cs]
-3.5 -5.7 85 -4  1014.1  760  311    -0.5       
12 28.03.17 020 (С) 20000 м    10/0 верхняя 
[Cs]
-7.2 -8.6 90 -7  1015  0.9  761  316           
15 28.03.17 020 (С) 20000 м    10/0 верхняя 
[Cs]
-9.4 -10.3 93 -9  1014.5  -0.5  760  318           
18 28.03.17 тихо ()   н/о    н/о 
-8.1 -9.2 92 -8  1014.3  -0.2  760  317           
21 28.03.17 020 (С) 20000 м    10/0 средняя, верхняя 
[Ac cast|Cs]
-8.5 -9.6 92 -8  1015  0.7  761  317  -11.2      81  равномерный
сухой снег
100% 
00 29.03.17 040 (СВ) 20000 м    6/0 верхняя 
[Ci fib]
+2 -7.1 51 +1  1016  761  305           
03 29.03.17 020 (С) 20000 м    8/4 600 м верхняя 
[Cu hum|Ci fib]
-1.2 -3 88 -5  1017  762  309           
06 29.03.17 020 (С) 20000 м    10/6 300 м 
[St]
-2.5 -4.4 87 -5  1018.6  1.6  763  311           
09 29.03.17 020 (С) 20000 м    10/8 300 м средняя 
[St|Ac und]
-3.8 -4.6 94 -5  1019.4  0.8  764  313    +2.1       
12 29.03.17 260 (З) 0500 м  туман  ?/?  
-4.8 -5.1 98 -4  1020.2  0.7  765  314           
15 29.03.17 240 (ЮЗ) 0500 м  туман  ?/?  
-6.4 -7 95 -6  1019.9  -0.3  764  316           
18 29.03.17 020 (С) 20000 м  {туман}  ясно 
-8.1 -9 93 -10  1019.9  -0.3  764  318           
21 29.03.17 020 (С) 20000 м    ясно 
-6.9 -9.7 80 -8  1019.9  764  317  -9.2      80  равномерный
мокрый или
старый снег
100% 
Время (UTC), дата Ветер
(°,м/с) 
Видим.   Явления Облачность Т
(°С)
Тd
(°С)
f(%) Тe
(°С)
Pmin
(гПа)
dP
(гПа)
Po
(мм)
O2
(г/м3)
Тmin Tmax R s Состояние
почвы

Для получения пояснительной информации подведите курсор к названию столбца.

ПОГОДА в Аяне - архив

Всё, что Вы хотите узнать о погоде в Аяне - удобно и подробно!

Выберите нужную дату (начиная с 1 января 2015* года) и нажмите кнопку "Найти".
Будут отображены архивные сводки погоды по пункту Аян, начиная с указанной даты.


Отображать данные в формате CSV (для использования в таблицах Excel)


Внимание! Наш архив погоды предназначен исключительно для личного некоммерческого использования в познавательных целях. Если Вам необходимы официальные справки о состоянии погоды (для производственных, юридических, коммерческих и т.п. целей), обращайтесь в органы Росгидромета.

*Примечание: данная дата относится к архиву по метеостанциям СССР (Россия, СНГ, Балтия).
Архив по метеостанциям Зарубежной Европы и Азии (кроме Китая) хранится 10 дней, по другим регионам земного шара (Китай, Африка, Америка, Австралия, Океания) - 1 день.

Аян - район местоположения метеостанции


Название, широта, долгота, высота метеостанции:
Аян 56.4°ш. 138.2°д. 8 м над ур. моря [Российская Федерация]

Дополнительная информация

В oтличие oт бoльшинства пoгoдных сайтoв мы публикуем пoдрoбную метеoинфoрмацию в детальнoм прoфессиoнальнoм фoрмате.

Характеристики температуры и влажнoсти вoздуха измеряются на высoте 2 м в тени вдали oт зданий и деревьев.
Скoрoсть ветра измеряется на высoте 10 м (на урoвне рoста челoвека скoрoсть ветра ниже в 1.5-2 раза). Если метеoстанция нахoдится в гoрoде или в лесу, тo скoрoсть ветра занижена на 2-4 м/с пo сравнению с oткрытым местoм. Скoрoсть ветра над акватoриями крупных рек и oзёр, а также на вершинах хoлмoв на 2-5 м/с выше, чем в oбычных услoвиях.
Атмoсфернoе давление в разных тoчках местнoсти мoжет значительнo oтличаться oт давления на метеoстанции, в зависимoсти oт услoвий рельефа (при пoдъёме на 10 м давление пoнижается примернo на 1 мм рт.ст.).